Location: Im Fang
(46.6019°N, 7.2397°E)
Time: 11:53:16
(UTC+00:00)

Cosmos 2082 Rocket - Pass Details

Date: 08 December 2019
Orbit: 834 x 852 km, 71.0° (Epoch: 24 January)

Event Time Altitude Azimuth Distance (km) Brightness Sun altitude
Rises 06:18:34 0° 340° (NNW) 3,411 4.9 -7.3°
Reaches altitude 10° 06:22:02 10° 1° (N) 2,468 4.4 -6.8°
Maximum altitude 06:25:32 16° 40° (NE) 2,044 4.4 -6.2°
Drops below altitude 10° 06:29:00 10° 78° (ENE) 2,455 5.5 -5.7°
Sets 06:32:25 0° 99° (E) 3,383 7.0 -5.2°
